TimeCST,TemperatureF,Dew PointF,Humidity,Sea Level PressureIn,VisibilityMPH,Wind Direction,Wind SpeedMPH,Gust SpeedMPH,PrecipitationIn,Events,Conditions,WindDirDegrees,DateUTC
12:45 AM,19.4,14.0,80,29.98,10.0,SSE,12.7,-,N/A,,Mostly Cloudy,150,2013-01-07 06:45:00
12:53 AM,19.9,15.1,81,30.01,10.0,SSE,13.8,-,N/A,,Overcast,150,2013-01-07 06:53:00
1:53 AM,25.0,18.0,75,29.99,10.0,South,10.4,-,N/A,,Overcast,180,2013-01-07 07:53:00
2:53 AM,27.0,19.0,72,29.96,10.0,South,16.1,-,N/A,,Mostly Cloudy,170,2013-01-07 08:53:00
3:53 AM,26.1,19.0,75,29.94,10.0,South,9.2,-,N/A,,Mostly Cloudy,180,2013-01-07 09:53:00
4:53 AM,30.9,21.0,67,29.93,10.0,SSW,15.0,23.0,N/A,,Scattered Clouds,210,2013-01-07 10:53:00
6:53 AM,28.9,21.0,72,29.94,10.0,SW,12.7,-,N/A,,Mostly Cloudy,220,2013-01-07 12:53:00
7:53 AM,28.0,21.0,75,29.95,10.0,SW,9.2,-,N/A,,Mostly Cloudy,230,2013-01-07 13:53:00
8:53 AM,27.0,21.0,78,29.94,10.0,SSW,9.2,-,N/A,,Mostly Cloudy,210,2013-01-07 14:53:00
9:53 AM,28.9,21.9,75,29.96,10.0,SSW,9.2,-,N/A,,Mostly Cloudy,210,2013-01-07 15:53:00
10:53 AM,30.0,21.9,72,29.97,10.0,SW,11.5,-,N/A,,Mostly Cloudy,220,2013-01-07 16:53:00
11:53 AM,32.0,23.0,69,29.94,10.0,SW,11.5,16.1,N/A,,Mostly Cloudy,220,2013-01-07 17:53:00
12:45 PM,33.8,24.8,70,29.89,10.0,SSW,6.9,-,N/A,,Scattered Clouds,210,2013-01-07 18:45:00
12:53 PM,34.0,24.1,67,29.93,10.0,SW,9.2,-,N/A,,Scattered Clouds,220,2013-01-07 18:53:00
1:53 PM,35.1,24.1,64,29.93,10.0,SSW,6.9,-,N/A,,Scattered Clouds,210,2013-01-07 19:53:00
2:53 PM,36.0,25.0,64,29.94,10.0,SSW,5.8,-,N/A,,Scattered Clouds,210,2013-01-07 20:53:00
3:53 PM,36.0,24.1,62,29.95,10.0,SW,8.1,-,N/A,,Scattered Clouds,220,2013-01-07 21:53:00
4:53 PM,33.8,24.8,70,29.93,10.0,SSW,4.6,-,N/A,,Scattered Clouds,210,2013-01-07 22:53:00
5:53 PM,32.0,24.1,73,29.98,10.0,SSW,5.8,-,N/A,,Scattered Clouds,210,2013-01-07 23:53:00
6:53 PM,30.9,24.1,76,29.98,10.0,SW,9.2,-,N/A,,Scattered Clouds,220,2013-01-08 00:53:00
7:53 PM,28.9,24.1,82,29.98,10.0,SW,3.5,-,N/A,,Partly Cloudy,230,2013-01-08 01:53:00
8:53 PM,28.0,23.0,81,29.98,10.0,West,4.6,-,N/A,,Scattered Clouds,260,2013-01-08 02:53:00
9:53 PM,28.9,24.1,82,29.99,9.0,SW,3.5,-,N/A,,Mostly Cloudy,230,2013-01-08 03:53:00
10:53 PM,28.0,24.1,85,30.00,8.0,Calm,Calm,-,N/A,,Mostly Cloudy,0,2013-01-08 04:53:00
11:53 PM,25.0,21.9,88,30.00,10.0,SW,3.5,-,N/A,,Partly Cloudy,230,2013-01-08 05:53:00